North Platte, NE

2:14 AM CDT on July 28, 2016 (GMT -0500)
North Platte Regional-Bird

Weather History for KLBF - November, 2013

Change the Weather History Date:

Monday, November 11, 2013

  Actual Average Record
Temperature  
Mean Temperature 30 °F 38 °F  
Max Temperature 39 °F 53 °F 82 °F (2005)
Min Temperature 21 °F 23 °F -6 °F (1986)
Degree Days  
Heating Degree Days 35 27  
Month to date heating degree days 281 272  
Since 1 July heating degree days 895 941  
Cooling Degree Days 0 0  
Month to date cooling degree days 0 0  
Year to date cooling degree days 998 768  
Moisture  
Dew Point 24 °F    
Average Humidity 82    
Maximum Humidity 100    
Minimum Humidity 63    
Precipitation  
Precipitation 0.00 in 0.03 in 0.76 in (1949)
Month to date precipitation 0.47 0.30  
Year to date precipitation 21.57 19.48  
Snow  
Snow 0.00 in 0.10 in 9.70 in (2000)
Month to date snowfall 2.2 1.3  
Since 1 July snowfall 2.2 3.6  
Since 1 September snowfall 2.2 3.6  
Snow Depth 0.00 in    
Sea Level Pressure  
Sea Level Pressure 30.40 in    
Wind  
Wind Speed 11 mph (North)    
Max Wind Speed 23 mph    
Max Gust Speed 33 mph    
Visibility 7 miles    
Events Fog    
T = Trace of Precipitation, MM = Missing Value Source: NWS Daily Summary

Daily Weather History Graph

Daily Weather History Graph

Search for Another Location

Airport or City:

Trip Planner

Search our weather history database for the weather conditions in past years. The results will help you decide how hot, cold, wet, or windy it might be!

Date:

Astronomy

Nov. 11, 2013 Rise Set
Actual Time 7:26 AM CST 5:26 PM CST
Civil Twilight 6:56 AM CST 5:56 PM CST
Nautical Twilight 6:23 AM CST 6:29 PM CST
Astronomical Twilight 5:51 AM CST 7:01 PM CST
Moon 2:11 PM CST (11/11) 1:09 AM CST (11/11)
Length of Visible Light 10h 59m
Length of Day
10h 00m
Waxing Gibbous, 66% of the Moon is Illuminated
Nov 11
Waxing Gibbous
Nov 17
Full
Nov 25
Last Quarter
Dec 2
New
Dec 9
First Quarter

Hourly Weather History & Observations

Time (CST) Temp. Windchill Dew Point Humidity Pressure Visibility Wind Dir Wind Speed Gust Speed Precip Events Conditions
12:35 AM 33.8 °F - 32.0 °F 93% 30.12 in 1.2 mi Calm Calm - N/A   Clear
12:43 AM 33.8 °F 29.6 °F 32.0 °F 93% 30.12 in 0.5 mi NW 4.6 mph - N/A Fog Fog
12:50 AM 32.0 °F 26.4 °F 30.2 °F 93% 30.12 in 1.5 mi NW 5.8 mph - N/A   Clear
12:53 AM 30.9 °F 25.2 °F 30.0 °F 96% 30.15 in 2.0 mi NW 5.8 mph - N/A   Clear
1:01 AM 30.2 °F 25.4 °F 28.4 °F 93% 30.11 in 4.0 mi NW 4.6 mph - N/A   Clear
1:15 AM 30.2 °F - 30.2 °F 100% 30.11 in 1.8 mi Calm Calm - N/A   Partly Cloudy
1:18 AM 30.2 °F - 30.2 °F 100% 30.11 in 0.8 mi Calm Calm - N/A   Mist
1:53 AM 30.9 °F - 28.9 °F 92% 30.14 in 1.0 mi Calm Calm - N/A   Clear
2:00 AM 30.2 °F - 28.4 °F 93% 30.10 in 0.2 mi Calm Calm - N/A Fog Light Freezing Fog
2:41 AM 28.4 °F - 28.4 °F 100% 30.10 in 0.2 mi Calm Calm - N/A Fog Light Freezing Fog
2:50 AM 28.4 °F 24.6 °F 28.4 °F 100% 30.10 in 0.2 mi WNW 3.5 mph - N/A Fog Light Freezing Fog
2:53 AM 30.0 °F 26.5 °F 28.9 °F 96% 30.12 in 0.5 mi WNW 3.5 mph - N/A Fog Light Freezing Fog
2:56 AM 30.2 °F 26.7 °F 28.4 °F 93% 30.10 in 1.8 mi WNW 3.5 mph - N/A   Clear
2:58 AM 30.2 °F 26.7 °F 28.4 °F 93% 30.10 in 3.0 mi NW 3.5 mph - N/A   Clear
3:53 AM 33.1 °F - 32.0 °F 96% 30.14 in 7.0 mi Calm Calm - N/A   Clear
4:53 AM 35.1 °F 24.8 °F 32.0 °F 89% 30.18 in 10.0 mi NNE 17.3 mph 24.2 mph N/A   Clear
5:40 AM 33.8 °F 23.9 °F 30.2 °F 87% 30.20 in 10.0 mi NNE 15.0 mph 23.0 mph N/A   Scattered Clouds
5:53 AM 33.1 °F 22.2 °F 30.0 °F 89% 30.23 in 10.0 mi NNE 17.3 mph 24.2 mph N/A   Mostly Cloudy
6:53 AM 32.0 °F 20.8 °F 28.9 °F 88% 30.28 in 10.0 mi NNE 17.3 mph 32.2 mph N/A   Overcast
7:53 AM 30.0 °F 18.7 °F 27.0 °F 88% 30.34 in 6.0 mi NNE 16.1 mph 28.8 mph N/A   Overcast
8:53 AM 28.9 °F 18.6 °F 26.1 °F 89% 30.41 in 8.0 mi NNE 12.7 mph 25.3 mph N/A   Overcast
9:53 AM 28.0 °F 16.5 °F 24.1 °F 85% 30.45 in 10.0 mi NNE 15.0 mph 23.0 mph N/A   Overcast
10:14 AM 28.4 °F 17.0 °F 23.0 °F 80% 30.40 in 10.0 mi NE 15.0 mph - N/A   Overcast
10:38 AM 28.4 °F 17.0 °F 21.2 °F 74% 30.42 in 10.0 mi NNE 15.0 mph 20.7 mph N/A   Overcast
10:53 AM 28.9 °F 17.3 °F 21.9 °F 75% 30.48 in 10.0 mi North 16.1 mph - N/A   Overcast
11:53 AM 28.9 °F 17.3 °F 21.9 °F 75% 30.52 in 10.0 mi NNE 16.1 mph - N/A   Overcast
12:53 PM 30.0 °F 19.5 °F 21.0 °F 69% 30.55 in 10.0 mi NNE 13.8 mph 21.9 mph N/A   Overcast
1:53 PM 30.0 °F 18.7 °F 21.0 °F 69% 30.56 in 10.0 mi NNE 16.1 mph 21.9 mph N/A   Overcast
2:34 PM 30.2 °F 19.3 °F 19.4 °F 64% 30.48 in 10.0 mi NNE 15.0 mph - N/A   Overcast
2:53 PM 28.9 °F 18.2 °F 19.0 °F 67% 30.57 in 10.0 mi North 13.8 mph - N/A   Overcast
3:50 PM 28.4 °F 17.5 °F 19.4 °F 69% 30.51 in 10.0 mi North 13.8 mph - N/A   Overcast
3:53 PM 28.0 °F 17.0 °F 19.0 °F 69% 30.60 in 10.0 mi North 13.8 mph - N/A   Overcast
4:30 PM 28.4 °F 19.7 °F 19.4 °F 69% 30.53 in 10.0 mi North 9.2 mph - N/A   Overcast
4:53 PM 28.0 °F 19.3 °F 18.0 °F 66% 30.61 in 10.0 mi North 9.2 mph - N/A   Overcast
5:53 PM 27.0 °F 16.1 °F 18.0 °F 69% 30.64 in 10.0 mi North 12.7 mph - N/A   Overcast
6:53 PM 25.0 °F 15.5 °F 18.0 °F 75% 30.69 in 10.0 mi North 9.2 mph - N/A   Partly Cloudy
7:53 PM 26.1 °F 17.6 °F 17.1 °F 69% 30.71 in 10.0 mi North 8.1 mph - N/A   Overcast
8:53 PM 25.0 °F 14.8 °F 16.0 °F 69% 30.76 in 10.0 mi North 10.4 mph - N/A   Overcast
9:53 PM 25.0 °F 16.3 °F 15.1 °F 66% 30.79 in 10.0 mi North 8.1 mph - N/A   Mostly Cloudy
10:53 PM 23.0 °F 15.8 °F 14.0 °F 68% 30.82 in 10.0 mi NNE 5.8 mph - N/A   Clear
11:53 PM 21.0 °F 13.4 °F 14.0 °F 74% 30.84 in 10.0 mi NNE 5.8 mph - N/A   Clear